Location: Limoges
(45.8354°N, 1.2645°E)
Time: 10:17:58
(UTC+01:00)

Explorer 7 - Visible Passes

Search period start: 25 February 2024 00:00
Search period end: 06 March 2024 00:00
Orbit: 470 x 632 km, 50.3° (Epoch: 25 February)

Date Brightness Start Highest point End Pass type
(mag) Time Alt. Az. Time Alt. Az. Time Alt. Az.
28 Feb 9.3 07:03:09 10° S 07:05:43 18° SE 07:08:19 10° E visible
29 Feb 8.8 06:57:19 10° SSW 07:00:20 24° SE 07:03:23 10° E visible
01 Mar 8.2 06:51:40 10° SSW 06:54:58 32° SE 06:58:19 10° ENE visible
02 Mar 7.6 06:46:09 10° SW 06:49:37 43° SE 06:53:09 10° ENE visible
03 Mar 9.4 05:04:29 10° SE 05:05:10 10° SE 05:05:51 10° ESE visible
03 Mar 7.1 06:40:42 10° SW 06:44:17 57° SSE 06:47:55 10° ENE visible
04 Mar 9.1 04:59:39 15° SE 04:59:41 15° SE 05:01:46 10° E visible
04 Mar 6.6 06:35:19 10° WSW 06:38:57 74° SSE 06:42:39 10° ENE visible
05 Mar 8.8 04:54:48 19° SE 04:54:48 19° SE 04:56:57 10° E visible
05 Mar 6.5 06:30:28 14° WSW 06:33:38 87° NNW 06:37:20 10° ENE visible
